Home > Products > State Listing > Idaho Data
Latest:
 RWRID |
  [top]

000
ASUS45 KBOI 250010
RWRID

IDAHO REGIONAL WEATHER ROUNDUP
NATIONAL WEATHER SERVICE BOISE ID
600 PM MDT TUE MAY 24 2016

NOTE: "FAIR" INDICATES FEW OR NO CLOUDS BELOW 12000 FEET
WITH NO SIGNIFICANT WEATHER AND/OR OBSTRUCTIONS TO VISIBILITY

IDZ012-014-250100-
SOUTHWEST IDAHO


CITY           SKY/WX    TMP DP  RH WIND       PRES   REMARKS
BOISE          MOSUNNY   71  28  20 NW12G22   29.80F
CALDWELL       MOSUNNY   72  36  26 NW8       29.82S
MOUNTAIN HOME  PTSUNNY   73  38  27 W15       29.81S
$$

IDZ016-017-250100-
SOUTHCENTRAL IDAHO


CITY           SKY/WX    TMP DP  RH WIND       PRES   REMARKS
BURLEY         MOSUNNY   63  38  39 W10       29.83S
JEROME         PTSUNNY   64  37  36 NW10      29.83R
TWIN FALLS     MOSUNNY   66  35  31 W9        29.83S
$$

IDZ019>023-250100-
SOUTHEAST IDAHO


CITY           SKY/WX    TMP DP  RH WIND       PRES   REMARKS
IDAHO FALLS    CLOUDY    57  44  62 N7        29.84F
POCATELLO      CLOUDY    59  39  47 S9G16     29.85R THUNDER
REXBURG        CLOUDY    60  36  40 S10       29.82S
$$

IDZ006-010-011-018-031-032-250100-
CENTRAL IDAHO MOUNTAINS


CITY           SKY/WX    TMP DP  RH WIND       PRES   REMARKS
MCCALL         CLOUDY    55  34  45 W10       29.87S
HAILEY         MOSUNNY   57  39  51 NW10      29.88F
STANLEY          N/A     55  29  36 NW13      29.90R
SALMON         MOSUNNY   59  36  41 NW5       29.85S
CHALLIS        LGT RAIN  55  37  50 W5        29.87R
$$

IDZ002-004-006-007-026-250100-
NORTHERN IDAHO


CITY           SKY/WX    TMP DP  RH WIND       PRES   REMARKS
LEWISTON       PTSUNNY   67  44  43 NE5       29.89F
LOWELL           N/A     57  54  89 N3        29.91R
COEUR D`ALENE  SUNNY     63  45  51 SE6       29.88S
MULLAN PASS    CLOUDY    41  41 100 N5        29.96R
$$





000
ASUS45 KBOI 242310
RWRID

IDAHO REGIONAL WEATHER ROUNDUP
NATIONAL WEATHER SERVICE BOISE ID
500 PM MDT TUE MAY 24 2016

NOTE: "FAIR" INDICATES FEW OR NO CLOUDS BELOW 12000 FEET
WITH NO SIGNIFICANT WEATHER AND/OR OBSTRUCTIONS TO VISIBILITY

IDZ012-014-250000-
SOUTHWEST IDAHO


CITY           SKY/WX    TMP DP  RH WIND       PRES   REMARKS
BOISE          MOSUNNY   72  30  21 NW10G20   29.81F
CALDWELL       PTSUNNY   73  35  25 NW6       29.82F
MOUNTAIN HOME  PTSUNNY   74  36  24 W20G25    29.81R
$$

IDZ016-017-250000-
SOUTHCENTRAL IDAHO


CITY           SKY/WX    TMP DP  RH WIND       PRES   REMARKS
BURLEY         MOSUNNY   63  37  38 VRB3      29.83F
JEROME         MOSUNNY   67  35  30 VRB7      29.82F
TWIN FALLS     MOSUNNY   65  36  34 VRB6      29.83F
$$

IDZ019>023-250000-
SOUTHEAST IDAHO


CITY           SKY/WX    TMP DP  RH WIND       PRES   REMARKS
IDAHO FALLS    CLOUDY    62  36  37 W8        29.82F
POCATELLO      CLOUDY    63  40  42 NW13      29.84S
REXBURG        CLOUDY    61  35  37 S10G20    29.82F
$$

IDZ006-010-011-018-031-032-250000-
CENTRAL IDAHO MOUNTAINS


CITY           SKY/WX    TMP DP  RH WIND       PRES   REMARKS
MCCALL         CLOUDY    58  31  35 N7        29.87F
HAILEY         MOSUNNY   55  41  58 NW10      29.89F
STANLEY          N/A     55  27  34 N10       29.89F
SALMON         MOSUNNY   57  36  44 N6        29.85F
CHALLIS        CLOUDY    58  35  42 NW14      29.85S
$$

IDZ002-004-006-007-026-250000-
NORTHERN IDAHO


CITY           SKY/WX    TMP DP  RH WIND       PRES   REMARKS
LEWISTON       MOSUNNY   68  44  42 VRB3      29.90F
LOWELL           N/A     61  52  72 CALM      29.90F
COEUR D`ALENE  SUNNY     63  46  55 S6        29.88F
MULLAN PASS    PTSUNNY   40  40 100 VRB5      29.96R
$$





000
ASUS45 KBOI 241810
RWRID

IDAHO REGIONAL WEATHER ROUNDUP
NATIONAL WEATHER SERVICE BOISE ID
1200 PM MDT TUE MAY 24 2016

NOTE: "FAIR" INDICATES FEW OR NO CLOUDS BELOW 12000 FEET
WITH NO SIGNIFICANT WEATHER AND/OR OBSTRUCTIONS TO VISIBILITY

IDZ012-014-241900-
SOUTHWEST IDAHO


CITY           SKY/WX    TMP DP  RH WIND       PRES   REMARKS
BOISE          PTSUNNY   62  41  46 W12       29.85F
CALDWELL       MOSUNNY   65  42  43 W7        29.86F
MOUNTAIN HOME  PTSUNNY   67  42  39 NW10      29.84F
$$

IDZ016-017-241900-
SOUTHCENTRAL IDAHO


CITY           SKY/WX    TMP DP  RH WIND       PRES   REMARKS
BURLEY         PTSUNNY   57  42  57 NW6       29.85F
JEROME         PTSUNNY   58  41  53 VRB6      29.87S
TWIN FALLS     CLOUDY    57  42  57 W9        29.87S
$$

IDZ019>023-241900-
SOUTHEAST IDAHO


CITY           SKY/WX    TMP DP  RH WIND       PRES   REMARKS
IDAHO FALLS    PTSUNNY   62  37  39 CALM      29.86F
POCATELLO      PTSUNNY   59  40  49 CALM      29.86F
REXBURG        CLOUDY    59  36  42 CALM      29.86F
$$

IDZ006-010-011-018-031-032-241900-
CENTRAL IDAHO MOUNTAINS


CITY           SKY/WX    TMP DP  RH WIND       PRES   REMARKS
MCCALL         PTSUNNY   52  33  48 SW5       29.88F
HAILEY         PTSUNNY   57  39  51 SE12      29.88F
STANLEY          N/A     53  27  36 N6        29.91F
SALMON         PTSUNNY   54  37  54 N8        29.88F
CHALLIS        PTSUNNY   55  32  41 CALM      29.88F
$$

IDZ002-004-006-007-026-241900-
NORTHERN IDAHO


CITY           SKY/WX    TMP DP  RH WIND       PRES   REMARKS
LEWISTON       CLOUDY    58  49  72 NE5       29.92S
LOWELL           N/A     57  48  72 CALM      29.94F
COEUR D`ALENE  CLOUDY    54  46  76 SE7       29.91R
MULLAN PASS    LGT RAIN  37  37 100 N5        29.93R VSB<1/4 WCI  33
$$





000
ASUS45 KBOI 241710
RWRID

IDAHO REGIONAL WEATHER ROUNDUP
NATIONAL WEATHER SERVICE BOISE ID
1100 AM MDT TUE MAY 24 2016

NOTE: "FAIR" INDICATES FEW OR NO CLOUDS BELOW 12000 FEET
WITH NO SIGNIFICANT WEATHER AND/OR OBSTRUCTIONS TO VISIBILITY

IDZ012-014-241800-
SOUTHWEST IDAHO


CITY           SKY/WX    TMP DP  RH WIND       PRES   REMARKS
BOISE          MOSUNNY   60  41  49 W7        29.86F
CALDWELL       MOSUNNY   61  44  53 VRB7      29.87F
MOUNTAIN HOME  PTSUNNY   63  41  45 NW10      29.85S
$$

IDZ016-017-241800-
SOUTHCENTRAL IDAHO


CITY           SKY/WX    TMP DP  RH WIND       PRES   REMARKS
BURLEY         CLOUDY    55  39  54 VRB7      29.86S
JEROME         PTSUNNY   53  41  63 VRB6      29.87F
TWIN FALLS     PTSUNNY   56  41  57 NW6       29.87S
$$

IDZ019>023-241800-
SOUTHEAST IDAHO


CITY           SKY/WX    TMP DP  RH WIND       PRES   REMARKS
IDAHO FALLS    CLOUDY    58  42  55 NW8       29.87S
POCATELLO      CLOUDY    54  43  66 NW7       29.87F
REXBURG        CLOUDY    56  36  47 CALM      29.87F
$$

IDZ006-010-011-018-031-032-241800-
CENTRAL IDAHO MOUNTAINS


CITY           SKY/WX    TMP DP  RH WIND       PRES   REMARKS
MCCALL         MOSUNNY   51  31  46 NW3       29.89S
HAILEY         PTSUNNY   54  37  54 SE8       29.89F
STANLEY          N/A     49  31  49 NW5       29.92F
SALMON         CLOUDY    52  37  58 CALM      29.89F
CHALLIS        MOSUNNY   51  32  48 NE5       29.89F
$$

IDZ002-004-006-007-026-241800-
NORTHERN IDAHO


CITY           SKY/WX    TMP DP  RH WIND       PRES   REMARKS
LEWISTON       CLOUDY    56  47  71 CALM      29.92R
LOWELL           N/A     54  47  77 CALM      29.95S
COEUR D`ALENE  CLOUDY    52  46  82 SE5       29.90S
MULLAN PASS    LGT RAIN  37  37 100 VRB3      29.92R VSB<1/4
$$





000
ASUS45 KBOI 241610
RWRID

IDAHO REGIONAL WEATHER ROUNDUP
NATIONAL WEATHER SERVICE BOISE ID
1000 AM MDT TUE MAY 24 2016

NOTE: "FAIR" INDICATES FEW OR NO CLOUDS BELOW 12000 FEET
WITH NO SIGNIFICANT WEATHER AND/OR OBSTRUCTIONS TO VISIBILITY

IDZ012-014-241700-
SOUTHWEST IDAHO


CITY           SKY/WX    TMP DP  RH WIND       PRES   REMARKS
BOISE          MOSUNNY   56  40  55 VRB5      29.87R
CALDWELL       MOSUNNY   58  44  60 W9        29.88S
MOUNTAIN HOME  MOSUNNY   59  41  51 NW12      29.85S
$$

IDZ016-017-241700-
SOUTHCENTRAL IDAHO


CITY           SKY/WX    TMP DP  RH WIND       PRES   REMARKS
BURLEY         CLOUDY    55  42  61 W6        29.86R
JEROME         CLOUDY    50  40  68 SW6       29.88R
TWIN FALLS     CLOUDY    52  40  63 W8        29.87S
$$

IDZ019>023-241700-
SOUTHEAST IDAHO


CITY           SKY/WX    TMP DP  RH WIND       PRES   REMARKS
IDAHO FALLS    CLOUDY    54  41  61 N8        29.87F
POCATELLO      PTSUNNY   54  41  61 NW5       29.88R
REXBURG        CLOUDY    53  37  54 NW3       29.88S
$$

IDZ006-010-011-018-031-032-241700-
CENTRAL IDAHO MOUNTAINS


CITY           SKY/WX    TMP DP  RH WIND       PRES   REMARKS
MCCALL         MOSUNNY   47  37  68 CALM      29.89F
HAILEY         PTSUNNY   50  34  53 W9        29.90S
STANLEY          N/A     42  30  62 VRB3      29.94F
SALMON         CLOUDY    48  36  61 CALM      29.91F
CHALLIS        PTSUNNY   46  32  58 NE3       29.91F
$$

IDZ002-004-006-007-026-241700-
NORTHERN IDAHO


CITY           SKY/WX    TMP DP  RH WIND       PRES   REMARKS
LEWISTON       CLOUDY    54  48  80 CALM      29.91S
LOWELL           N/A     50  47  89 CALM      29.95S
COEUR D`ALENE  CLOUDY    50  46  87 CALM      29.90S
MULLAN PASS    LGT RAIN  36  35  96 VRB3      29.91S VSB<1/4
$$





    US Dept of Commerce
    National Oceanic and Atmospheric Administration
    National Weather Service
    1325 East West Highway
    Silver Spring, MD 20910
    Page Author: NWS Internet Services Team
Disclaimer
Information Quality
Credits
Glossary
Privacy Policy
Freedom of Information Act (FOIA)
About Us
Career Opportunities